Wind_Speed
56 54 52 50 48 45 41 39 38 37 37 37 38 39 39 40 42 43 45 46 48 49 51 52 53 53 54 54 54 54 54 55 56 57 58 58 59 61 62 63 63 62
54 52 50 48 45 42 40 38 38 38 38 39 40 41 42 43 44 46 47 49 50 51 52 53 53 54 54 54 54 54 55 56 57 58 58 58 60 62 63 63 62 61
49 48 46 44 42 40 39 38 38 38 39 41 42 43 44 45 47 48 50 51 52 52 53 53 53 53 54 54 54 55 56 57 58 58 58 59 61 63 63 62 61 60
45 46 45 43 41 40 39 38 39 40 41 42 44 45 46 47 49 50 51 52 52 53 53 53 53 54 54 55 55 56 57 57 57 58 59 60 62 62 62 60 59 59
47 47 45 43 42 41 40 39 40 41 42 43 45 46 47 48 49 50 51 52 52 52 52 53 53 54 55 56 56 56 56 57 57 58 60 61 61 61 60 59 59 58
47 46 45 44 43 41 40 40 42 43 44 45 46 47 48 49 50 51 52 52 52 52 53 53 54 55 55 55 55 55 55 56 57 59 60 60 60 60 59 58 58 59
46 46 45 43 42 41 41 42 43 44 45 46 47 48 49 51 52 52 52 52 52 53 54 54 55 55 55 54 54 55 55 56 57 58 59 59 59 59 58 58 58 59
45 44 43 42 42 42 42 43 45 46 47 48 49 50 51 51 52 51 52 53 53 54 55 55 55 54 54 54 55 55 55 56 57 58 59 58 58 58 58 58 59 60
44 43 43 42 42 42 43 45 46 47 48 49 50 50 51 51 51 52 53 54 54 55 55 55 54 54 54 55 55 55 55 56 57 58 58 58 58 58 58 58 60 61
44 43 43 43 43 44 45 46 47 47 48 49 49 50 50 51 52 53 53 54 54 55 55 55 54 54 55 55 54 54 55 57 58 58 58 58 58 58 58 59 61 61
43 43 43 44 44 44 45 46 47 47 48 48 49 50 50 51 52 53 53 54 55 55 55 55 55 55 54 54 53 54 55 57 58 58 59 59 59 59 59 60 61 62
43 43 44 44 44 44 45 45 46 47 47 48 48 49 50 51 52 53 53 54 55 55 55 56 56 55 53 53 53 54 55 57 58 59 60 60 60 59 60 61 62 63
42 42 43 43 43 43 43 44 46 47 48 48 48 49 51 52 53 53 53 54 54 55 57 58 56 54 53 53 54 55 56 58 59 60 61 61 60 60 60 61 62 64
41 41 42 42 42 42 43 45 47 47 46 45 46 48 49 50 51 52 53 54 55 57 59 58 56 54 55 55 54 55 57 59 60 61 61 61 60 61 61 61 63 65
41 41 42 42 43 43 43 43 44 44 43 43 45 45 44 47 50 51 52 54 56 58 58 56 55 55 55 55 55 57 58 59 60 62 62 61 61 61 61 62 64 65
42 42 43 43 43 43 43 41 41 43 43 43 46 46 45 48 51 50 50 53 56 57 57 56 56 56 55 55 56 57 58 59 61 62 62 62 62 62 62 63 64 65
43 43 44 44 43 43 42 39 38 39 41 42 45 46 47 49 48 44 46 53 57 58 58 57 57 57 56 56 57 58 59 60 61 62 62 62 63 62 63 64 65 66
44 44 44 44 43 40 37 36 37 39 42 44 45 46 47 46 42 41 48 56 59 59 59 58 57 57 57 57 58 59 60 61 62 62 62 63 63 64 64 65 66 68
45 45 44 43 42 38 36 38 41 43 46 47 46 46 45 43 44 49 55 58 59 59 59 58 58 57 57 58 58 59 60 61 62 62 63 63 64 65 66 67 69 70
45 45 44 42 42 40 39 41 43 45 47 48 47 45 44 45 50 54 56 57 57 58 58 58 58 57 58 58 59 59 60 61 62 62 63 64 65 66 67 69 71 73
44 44 43 42 42 42 42 43 44 45 47 47 47 47 47 49 52 53 54 55 56 57 57 57 57 57 58 58 59 59 60 61 62 62 63 64 66 67 68 70 72 74
43 43 42 43 43 43 43 44 45 46 46 47 48 49 49 51 52 52 53 54 55 56 56 56 57 58 58 58 58 59 61 62 62 62 63 65 66 67 68 70 73 75
43 42 43 44 44 44 44 45 45 46 47 47 49 50 50 51 52 53 53 54 55 56 56 56 57 58 58 58 58 60 61 62 62 63 63 65 66 67 69 71 73 76
43 43 44 44 45 44 44 46 47 47 48 48 49 50 51 51 52 53 54 55 55 56 56 57 57 57 58 58 59 60 61 62 62 63 63 65 66 68 70 72 75 77
43 44 44 45 45 45 45 46 47 48 48 49 50 51 52 52 53 54 54 55 55 56 56 57 57 57 58 58 59 60 61 62 62 63 64 66 67 69 71 74 76 79
44 44 45 45 45 46 46 47 47 48 48 49 50 52 52 53 53 54 55 55 55 56 56 56 57 57 58 58 59 60 61 61 62 63 65 67 69 71 73 76 78 80
Wind_Direction
283 283 284 285 287 288 288 286 285 284 284 285 286 287 288 289 290 290 290 291 293 294 296 297 298 298 298 298 298 297 298 299 300 301 304 307 308 308 308 309 310 311
281 281 282 284 285 286 285 284 284 284 285 286 286 287 288 288 289 290 292 293 295 296 297 298 298 298 298 297 297 297 298 300 301 304 307 308 308 308 309 310 310 312
279 280 282 283 284 284 284 284 284 284 284 285 285 286 287 288 290 292 293 294 295 296 297 297 297 297 297 297 297 298 300 302 304 306 308 309 309 309 310 310 311 312
277 280 282 283 283 283 283 283 284 284 283 284 284 286 287 289 290 292 293 294 296 296 297 297 297 296 296 297 298 300 302 304 306 307 309 309 309 309 310 311 312 313
275 278 280 281 282 281 281 283 283 284 285 286 287 288 289 290 291 293 294 295 296 296 296 297 296 296 297 298 301 303 304 305 306 308 309 309 309 309 310 311 312 312
273 275 278 280 280 279 280 282 283 285 287 288 288 289 290 291 292 293 294 295 296 296 296 296 297 297 298 300 302 303 304 305 306 308 309 309 309 309 310 311 312 312
273 274 277 278 279 279 280 282 284 286 288 289 290 290 291 292 293 293 294 295 295 295 296 296 297 299 300 301 302 303 304 305 306 308 309 309 308 309 310 311 311 311
273 274 276 277 278 280 281 283 285 287 288 289 290 290 291 292 293 293 294 294 294 295 296 297 298 299 300 300 301 302 303 304 306 308 309 308 308 309 310 310 310 311
272 274 276 278 280 281 282 284 286 287 288 289 290 291 291 292 293 293 294 294 294 295 297 298 299 300 300 300 301 302 303 304 306 308 309 308 308 309 309 310 310 311
272 274 276 278 280 281 283 285 286 287 288 289 290 291 292 293 293 293 293 294 295 296 297 298 298 299 300 300 301 303 304 305 307 309 309 308 308 309 309 310 311 312
273 275 276 278 280 282 284 285 287 288 289 290 291 292 292 292 293 293 294 295 296 296 296 297 298 299 300 301 302 303 305 307 309 309 308 308 308 308 309 310 311 312
273 275 276 277 279 282 284 286 288 289 290 291 291 292 292 293 293 294 295 295 296 295 296 297 298 300 301 302 303 306 308 309 309 308 307 307 308 309 310 311 312 312
273 274 275 277 280 283 285 287 288 289 291 291 290 291 292 293 293 294 294 294 294 294 295 297 299 300 302 304 306 308 309 308 307 306 306 307 308 309 310 312 312 312
273 274 276 279 282 284 287 288 289 291 291 289 289 289 290 290 291 292 292 292 292 293 295 298 301 303 305 307 308 308 307 306 305 305 305 307 308 309 311 312 312 312
274 276 279 281 284 286 288 290 290 288 287 286 286 286 285 285 288 289 291 291 292 294 297 301 303 304 306 307 307 306 305 305 304 304 306 307 308 310 312 312 311 312
276 279 280 283 285 287 289 289 286 283 282 284 286 285 283 284 289 292 293 292 293 296 300 303 303 304 306 306 306 305 304 303 303 304 306 307 308 310 311 311 311 312
278 280 281 283 285 288 292 292 286 282 282 284 287 285 285 289 294 295 291 290 293 298 301 302 303 304 305 305 304 303 303 303 303 305 306 307 309 310 310 311 312 313
279 280 282 284 286 289 290 285 277 275 277 282 285 285 288 293 293 286 283 288 294 298 300 301 302 303 303 303 303 302 302 302 303 305 306 308 309 310 310 311 312 313
280 281 283 284 286 286 282 275 273 275 278 281 285 287 289 288 283 280 283 290 294 296 298 300 301 301 302 302 301 301 301 302 303 305 307 308 309 309 310 312 313 314
280 282 283 284 284 284 282 280 280 281 283 285 287 287 285 282 281 284 288 292 294 295 297 298 299 300 300 299 300 300 301 302 303 305 307 307 308 310 311 313 314 316
280 281 283 283 284 284 284 284 284 285 286 287 288 287 285 284 286 289 291 292 294 295 296 297 298 298 298 299 300 300 301 302 304 305 306 307 309 310 312 314 315 316
279 281 282 282 283 284 284 285 286 286 286 287 287 287 288 288 290 292 293 293 294 295 296 296 296 297 298 299 300 300 301 303 304 305 306 307 309 310 312 313 314 315
279 280 280 281 282 284 285 286 286 287 287 287 288 288 289 291 293 294 294 295 295 295 296 296 296 297 298 299 300 301 302 303 305 306 306 307 309 310 311 313 313 314
277 279 279 281 283 284 285 286 287 287 288 288 288 289 291 292 294 295 295 295 295 296 296 296 297 298 298 299 300 302 303 304 305 306 306 307 308 310 311 312 313 313
276 278 279 280 283 284 285 286 287 288 288 288 289 290 292 294 295 296 296 296 296 296 296 297 297 297 298 300 302 303 304 305 306 306 307 308 309 310 311 311 312 313
276 277 277 279 281 283 285 286 287 287 287 288 289 291 293 294 296 296 296 296 296 296 296 296 297 298 299 301 303 304 304 305 306 306 307 308 309 310 311 311 312 312
Height
10716 10715 10714 10713 10713 10712 10710 10709 10707 10706 10705 10704 10703 10701 10700 10700 10698 10696 10695 10693 10691 10689 10687 10684 10682 10679 10676 10673 10670 10667 10664 10661 10658 10654 10650 10647 10643 10639 10634 10630 10626 10621
10711 10710 10709 10709 10708 10707 10706 10705 10703 10702 10701 10700 10698 10697 10696 10695 10694 10692 10690 10688 10686 10684 10681 10679 10676 10673 10670 10667 10664 10661 10658 10655 10651 10648 10644 10640 10636 10632 10628 10624 10619 10615
10707 10705 10705 10705 10704 10703 10702 10701 10699 10698 10697 10695 10694 10693 10692 10691 10689 10687 10685 10683 10681 10679 10676 10674 10671 10668 10665 10662 10659 10656 10653 10649 10645 10641 10638 10634 10630 10626 10622 10618 10613 10609
10702 10701 10701 10701 10700 10699 10698 10696 10695 10693 10692 10691 10690 10689 10688 10686 10684 10682 10680 10678 10676 10673 10671 10668 10665 10662 10659 10656 10653 10650 10646 10643 10639 10635 10632 10628 10624 10620 10616 10612 10607 10603
10697 10697 10696 10696 10696 10695 10694 10692 10691 10689 10688 10687 10685 10684 10683 10681 10679 10677 10675 10673 10670 10668 10665 10662 10660 10657 10653 10650 10647 10644 10640 10637 10633 10630 10626 10622 10618 10614 10610 10606 10602 10598
10693 10693 10692 10692 10691 10690 10690 10688 10686 10684 10683 10682 10681 10679 10678 10676 10674 10672 10669 10667 10664 10662 10659 10657 10654 10651 10648 10645 10642 10638 10635 10631 10628 10624 10620 10616 10612 10608 10604 10600 10597 10593
10688 10688 10688 10687 10687 10686 10685 10683 10681 10680 10678 10677 10676 10674 10673 10671 10668 10666 10664 10661 10659 10656 10653 10651 10648 10645 10643 10640 10637 10633 10630 10626 10623 10619 10615 10611 10607 10603 10599 10595 10592 10588
10683 10683 10683 10683 10682 10681 10680 10678 10676 10675 10673 10672 10670 10669 10667 10665 10663 10661 10658 10656 10653 10650 10648 10645 10643 10640 10638 10635 10632 10628 10625 10621 10617 10614 10610 10606 10602 10598 10594 10590 10587 10583
10678 10679 10679 10678 10678 10677 10675 10673 10671 10670 10668 10666 10665 10663 10662 10660 10657 10655 10652 10650 10647 10645 10642 10640 10638 10635 10633 10630 10627 10623 10620 10616 10612 10608 10604 10601 10597 10593 10589 10585 10581 10578
10674 10674 10674 10673 10673 10672 10670 10668 10666 10665 10663 10661 10660 10658 10656 10654 10652 10649 10647 10644 10642 10639 10637 10635 10632 10630 10627 10624 10621 10618 10615 10611 10607 10603 10599 10595 10592 10588 10584 10580 10576 10572
10669 10669 10669 10668 10668 10667 10665 10663 10661 10660 10658 10656 10655 10653 10651 10648 10646 10644 10641 10639 10637 10634 10632 10629 10627 10625 10622 10619 10616 10613 10609 10605 10601 10597 10593 10590 10586 10582 10579 10575 10571 10567
10665 10664 10664 10663 10663 10662 10661 10659 10656 10655 10653 10651 10649 10647 10645 10642 10640 10638 10636 10634 10631 10629 10626 10624 10621 10619 10616 10613 10610 10607 10603 10599 10596 10592 10588 10584 10580 10577 10573 10569 10565 10561
10660 10659 10659 10659 10658 10658 10656 10654 10652 10650 10648 10646 10644 10642 10639 10637 10635 10633 10631 10629 10626 10623 10620 10618 10616 10614 10611 10608 10604 10601 10597 10594 10590 10587 10583 10579 10575 10571 10567 10563 10559 10555
10655 10654 10654 10654 10654 10653 10652 10650 10647 10645 10643 10641 10639 10637 10634 10631 10629 10628 10626 10623 10620 10618 10615 10613 10611 10608 10605 10602 10598 10595 10592 10589 10585 10581 10577 10573 10569 10565 10562 10558 10553 10549
10649 10649 10649 10649 10649 10649 10649 10647 10642 10639 10639 10637 10635 10634 10631 10627 10624 10623 10621 10618 10615 10612 10610 10608 10606 10603 10600 10597 10593 10590 10587 10583 10579 10575 10571 10567 10563 10559 10556 10552 10548 10543
10644 10645 10644 10644 10645 10644 10645 10644 10639 10634 10633 10633 10631 10629 10626 10623 10620 10618 10615 10611 10609 10606 10604 10603 10600 10597 10594 10591 10588 10585 10581 10577 10573 10569 10565 10561 10557 10554 10550 10546 10542 10538
10639 10639 10639 10639 10640 10640 10641 10640 10637 10632 10629 10628 10627 10624 10620 10618 10616 10613 10609 10605 10603 10601 10599 10597 10594 10591 10589 10586 10583 10579 10575 10571 10567 10563 10559 10555 10551 10548 10544 10540 10536 10532
10633 10634 10634 10635 10635 10637 10637 10635 10632 10629 10626 10624 10623 10620 10616 10614 10611 10607 10603 10599 10597 10595 10593 10590 10588 10585 10583 10580 10577 10573 10569 10565 10561 10557 10553 10549 10545 10542 10538 10534 10530 10526
10628 10628 10629 10629 10630 10632 10633 10630 10627 10625 10622 10620 10620 10617 10613 10610 10606 10600 10597 10594 10592 10590 10587 10585 10583 10580 10578 10575 10571 10567 10564 10560 10555 10551 10548 10543 10539 10535 10531 10527 10523 10518
10623 10623 10623 10624 10624 10625 10625 10623 10621 10619 10616 10614 10613 10612 10610 10606 10601 10596 10593 10590 10588 10585 10583 10580 10577 10575 10572 10569 10565 10562 10558 10554 10550 10546 10542 10538 10533 10529 10525 10520 10515 10510
10617 10617 10618 10618 10617 10618 10617 10616 10614 10613 10610 10608 10606 10605 10603 10600 10596 10593 10590 10586 10584 10581 10578 10575 10572 10569 10566 10563 10560 10556 10552 10548 10544 10540 10536 10532 10528 10523 10519 10514 10509 10504
10612 10612 10612 10611 10611 10611 10610 10609 10608 10606 10604 10602 10600 10598 10596 10593 10591 10588 10585 10581 10578 10575 10573 10570 10566 10563 10561 10558 10554 10550 10546 10542 10539 10535 10531 10526 10522 10518 10513 10509 10504 10499
10607 10606 10606 10605 10605 10605 10604 10603 10601 10599 10598 10596 10593 10591 10589 10587 10584 10582 10579 10576 10573 10570 10567 10564 10560 10557 10555 10552 10548 10544 10540 10536 10533 10530 10526 10521 10517 10513 10508 10503 10498 10493
10601 10601 10600 10599 10599 10599 10598 10596 10594 10592 10591 10589 10587 10584 10582 10581 10579 10576 10573 10570 10567 10564 10561 10558 10554 10551 10548 10545 10542 10539 10535 10531 10527 10524 10520 10515 10511 10507 10502 10497 10492 10487
10597 10596 10595 10594 10593 10592 10591 10590 10588 10586 10584 10583 10580 10578 10576 10574 10572 10569 10566 10564 10561 10558 10555 10552 10549 10545 10542 10539 10536 10533 10529 10526 10522 10518 10514 10509 10505 10501 10496 10491 10486 10481
10592 10591 10590 10589 10588 10587 10586 10584 10582 10580 10578 10576 10574 10572 10570 10568 10566 10563 10560 10557 10555 10552 10549 10546 10543 10540 10536 10533 10530 10527 10524 10520 10517 10512 10508 10503 10499 10494 10490 10485 10480 10474